Location: Ponte Samoggia
(44.5667°N, 11.1333°E)
Time: 17:08:31
(UTC+00:00)

SL-16 R/B - Pass Details

Date: 26 May 2022
Orbit: 839 x 850 km, 71.0° (Epoch: 07 July)

Event Time Altitude Azimuth Distance (km) Brightness Sun altitude
Exits shadow 00:16:38 25° 133° (SE) 1,654 3.5 -22.7°
Maximum altitude 00:18:21 29° 103° (ESE) 1,498 3.5 -22.6°
Drops below altitude 10° 00:23:09 10° 45° (NE) 2,471 5.5 -22.4°
Sets 00:25:53 0° 35° (NE) 3,413 6.7 -22.2°
